Location: Chequamegon National Forest
(46.1070°N, 90.8420°W)
Time: 14:50:41
(UTC-05:00)

Amateur Radio Satellites - All Passes

Search period start: 28 April 2015 14:20
Search period end: 29 April 2015 14:20
Location: Chequamegon National Forest, 46.1070°N, 90.8420°W

Satellite Date Start Highest point End Downlink Frequencies (MHz)
Time Altitude Azimuth
ITUPSAT 1 28 Apr 14:22:53 14:27:21 39° 97° (E) 14:31:48 437.325
TISAT 1 28 Apr 14:26:17 14:30:06 32° 292° (WNW) 14:33:51 437.305
ISS 28 Apr 14:30:25 14:33:21 29° 359° (N) 14:36:17 145.825
SO-50 28 Apr 14:37:23 14:39:03 11° 342° (NNW) 14:40:38 436.795
JAS-2 28 Apr 14:45:48 14:52:09 29° 61° (ENE) 14:58:21 435.910
Gurwin Techsat 1B 28 Apr 14:50:45 14:56:03 74° 257° (WSW) 15:01:24 435.225
BEESAT 28 Apr 14:51:31 14:56:18 75° 103° (ESE) 15:01:03 436.000
SWISSCUBE 28 Apr 14:54:35 14:59:23 86° 107° (ESE) 15:04:08 437.505
AO-7 28 Apr 14:59:58 15:07:33 43° 59° (ENE) 15:15:16 29.400- 29.500
Oscar 19 28 Apr 15:02:47 15:06:21 18° 271° (W) 15:09:45 437.125/150
SPROUT 28 Apr 15:10:59 15:12:18 11° 301° (WNW) 15:13:26 437.525
GONETS M04 28 Apr 15:17:30 15:23:46 23° 80° (E) 15:30:24
HORYU 2 28 Apr 15:18:51 15:23:09 46° 70° (ENE) 15:27:30 437.375
Cosmos 2504 28 Apr 15:20:25 15:28:24 34° 294° (WNW) 15:36:01 435.465 / 435.565
KKS-1 28 Apr 15:32:43 15:36:57 39° 97° (E) 15:41:10 437.445
ITAMSAT 1 28 Apr 15:43:44 15:47:50 23° 268° (W) 15:51:51 435.822/435.867
VERMONT LUNAR 28 Apr 15:50:47 15:52:50 15° 158° (SSE) 15:54:55 437.305
PCSat 28 Apr 15:58:33 16:03:26 33° 45° (NE) 16:08:20 145.827
ITUPSAT 1 28 Apr 16:01:05 16:05:06 27° 295° (WNW) 16:09:02 437.325
ISS 28 Apr 16:07:00 16:10:10 46° 18° (NNE) 16:13:20 145.825
RS-15 28 Apr 16:07:28 16:18:16 60° 318° (NW) 16:29:22 29.354- 29.394
STARS 28 Apr 16:19:27 16:23:56 76° 104° (ESE) 16:28:23 437.465
MOZHAYETS 4 28 Apr 16:24:57 16:25:55 11° 85° (E) 16:27:09
JAS-2 28 Apr 16:28:50 16:36:42 73° 258° (WSW) 16:44:10 435.910
BEESAT 28 Apr 16:30:46 16:33:37 16° 300° (WNW) 16:36:19 436.000
SWISSCUBE 28 Apr 16:34:11 16:36:37 14° 301° (WNW) 16:38:53 437.505
DANDE 28 Apr 16:50:24 16:53:29 24° 85° (E) 16:57:24 436.750
PHONESAT 2.4 28 Apr 16:51:10 16:53:29 16° 157° (SSE) 16:55:50 2401.200-2431.200
AO-7 28 Apr 16:52:17 17:00:18 51° 260° (W) 17:08:19 29.400- 29.500
HORYU 2 28 Apr 16:56:42 17:00:04 20° 269° (W) 17:03:22 437.375
KKS-1 28 Apr 17:09:44 17:13:25 25° 295° (WNW) 17:17:01 437.445
GONETS M04 28 Apr 17:10:53 17:19:41 82° 280° (W) 17:28:36
CUTE-I 28 Apr 17:17:23 17:21:32 25° 62° (ENE) 17:25:49 437.470
VERMONT LUNAR 28 Apr 17:26:44 17:29:44 30° 174° (S) 17:32:45 437.305
Cubesat XI-IV 28 Apr 17:27:35 17:32:06 30° 64° (ENE) 17:36:42 437.490
CUSAT 1 28 Apr 17:30:56 17:34:57 88° 108° (ESE) 17:40:29 437.405
Cosmos 2499 28 Apr 17:38:47 17:46:14 33° 85° (E) 17:53:38 435.465 / 435.565
PCSat 28 Apr 17:41:51 17:47:04 48° 245° (WSW) 17:52:14 145.827
ISS 28 Apr 17:43:26 17:46:30 37° 217° (SW) 17:49:32 145.825
STARS 28 Apr 17:57:28 17:59:52 14° 300° (WNW) 18:02:05 437.465
MOZHAYETS 4 28 Apr 17:59:17 18:03:54 86° 289° (WNW) 18:08:29
SO-50 28 Apr 18:00:53 18:04:24 19° 31° (NNE) 18:07:59 436.795
CUBESAT XI-V 28 Apr 18:10:19 18:11:31 11° 85° (E) 18:13:01 437.345
JAS-2 28 Apr 18:18:31 18:23:01 15° 278° (W) 18:26:57 435.910
RS-15 28 Apr 18:24:02 18:33:35 31° 349° (N) 18:43:24 29.354- 29.394
PHONESAT 2.4 28 Apr 18:27:56 18:31:08 31° 174° (S) 18:34:23 2401.200-2431.200
DANDE 28 Apr 18:32:59 18:36:31 31° 295° (WNW) 18:41:03 436.750
PRISM 28 Apr 18:53:19 18:55:49 16° 90° (E) 18:58:26 437.425
CUTE-I 28 Apr 18:56:09 19:01:20 53° 260° (W) 19:06:33 437.470
HO-68 28 Apr 18:59:55 19:04:49 21° 52° (NE) 19:09:57 435.675
VERMONT LUNAR 28 Apr 19:03:50 19:06:45 27° 191° (S) 19:09:40 437.305
Cubesat XI-IV 28 Apr 19:07:01 19:12:04 42° 262° (W) 19:17:08 437.490
GONETS M04 28 Apr 19:11:52 19:18:14 21° 305° (NW) 19:24:20
M-CUBED/EXP-1 PRIME 28 Apr 19:13:32 19:17:16 32° 100° (E) 19:20:44 437.505
CUSAT 1 28 Apr 19:16:56 19:19:09 13° 310° (NW) 19:21:22 437.405
BRITE-PL 28 Apr 19:26:49 19:30:05 23° 65° (ENE) 19:33:35 437.365/2234.400
Cosmos 2499 28 Apr 19:30:14 19:39:02 63° 284° (WNW) 19:47:26 435.465 / 435.565
STRAND 1 28 Apr 19:34:21 19:39:02 36° 96° (E) 19:43:44 437.568
MOZHAYETS 4 28 Apr 19:38:43 19:40:28 12° 301° (WNW) 19:42:01
SO-50 28 Apr 19:40:46 19:45:46 78° 53° (NE) 19:50:42 436.795
CUBESAT XI-V 28 Apr 19:45:04 19:49:42 85° 284° (WNW) 19:54:20 437.345
SEEDS 28 Apr 19:46:03 19:48:25 15° 62° (ENE) 19:50:55 437.485
AUBIESAT-1 28 Apr 19:52:30 19:56:39 77° 108° (ESE) 20:00:25 437.475
AAUSAT CUBESAT 2 28 Apr 19:55:26 19:57:22 13° 62° (ENE) 19:59:29 437.432
CANX-2 28 Apr 19:58:54 20:02:24 25° 67° (ENE) 20:06:00 2200.000
PHONESAT 2.4 28 Apr 20:05:48 20:08:57 28° 191° (S) 20:12:05 2401.200-2431.200
CUTE 1.7 + AOD 2 28 Apr 20:07:22 20:11:00 28° 67° (ENE) 20:14:42 437.475
PRISM 28 Apr 20:27:38 20:31:37 49° 289° (WNW) 20:35:33 437.425
GOMX 1 28 Apr 20:33:56 20:38:10 68° 74° (ENE) 20:42:42 467.674
RS-15 28 Apr 20:39:55 20:50:04 36° 23° (NNE) 21:00:44 29.354- 29.394
VERMONT LUNAR 28 Apr 20:42:19 20:43:35 12° 206° (SSW) 20:44:46 437.305
DELFI C3 28 Apr 20:43:39 20:45:53 15° 63° (ENE) 20:48:15 145.870
HO-68 28 Apr 20:44:28 20:51:41 85° 72° (ENE) 20:58:56 435.675
M-CUBED/EXP-1 PRIME 28 Apr 20:48:32 20:52:02 25° 301° (WNW) 20:55:14 437.505
COMPASS 1 28 Apr 20:48:42 20:52:48 49° 72° (ENE) 20:56:56 437.405
CUBEBUG 2 28 Apr 20:50:21 20:53:41 21° 64° (ENE) 20:57:13 437.445
DOVE 4 28 Apr 20:53:52 20:58:11 74° 75° (ENE) 21:02:49 437.250
Cosmos 2491 28 Apr 20:57:52 21:01:36 14° 74° (ENE) 21:05:57 435.465 / 435.565
YUBILEINY 28 Apr 20:58:42 21:06:36 37° 66° (ENE) 21:14:32 435.215
BRITE-PL 28 Apr 21:04:33 21:08:28 37° 264° (W) 21:12:34 437.365/2234.400
O/OREOS (USA 219) 28 Apr 21:05:52 21:08:27 16° 101° (E) 21:11:14 437.305
HUMSAT D 28 Apr 21:06:49 21:07:19 10° 59° (ENE) 21:08:03 437.325/437.525
UWE-3 28 Apr 21:08:51 21:12:30 26° 66° (ENE) 21:16:20 435.000/436.395/437.385
FUNcube-1 28 Apr 21:09:35 21:12:55 22° 64° (ENE) 21:16:23 145.935
UKube-1 28 Apr 21:10:39 21:12:52 14° 60° (ENE) 21:15:14 .
CINEMA 3 28 Apr 21:12:52 21:17:14 61° 73° (ENE) 21:21:51 145.822/145.860
STRAND 1 28 Apr 21:13:39 21:18:12 32° 294° (WNW) 21:22:40 437.568
SEEDS 28 Apr 21:19:31 21:23:46 64° 260° (W) 21:28:02 437.485
SO-50 28 Apr 21:22:39 21:25:47 16° 249° (WSW) 21:28:42 436.795
CUBESAT XI-V 28 Apr 21:24:47 21:26:30 12° 301° (WNW) 21:27:59 437.345
Oscar 11 28 Apr 21:26:40 21:30:54 53° 72° (ENE) 21:35:11 145.826/435.025
AAUSAT CUBESAT 2 28 Apr 21:28:16 21:32:30 72° 259° (W) 21:36:44 437.432
AUBIESAT-1 28 Apr 21:28:53 21:30:50 13° 307° (NW) 21:32:34 437.475
Cosmos 2499 28 Apr 21:29:20 21:34:15 15° 308° (NW) 21:38:37 435.465 / 435.565
CANX-2 28 Apr 21:34:15 21:38:13 35° 264° (W) 21:42:11 2200.000
ZACube-1 28 Apr 21:35:32 21:39:35 38° 69° (ENE) 21:43:48 437.345
CUTE 1.7 + AOD 2 28 Apr 21:43:00 21:46:51 31° 265° (W) 21:50:42 437.475
PHONESAT 2.4 28 Apr 21:44:52 21:46:33 13° 206° (SSW) 21:48:09 2401.200-2431.200
VELOX 1 28 Apr 21:52:24 21:55:25 19° 63° (ENE) 21:58:33 145.980
DX 1 28 Apr 22:06:15 22:10:25 50° 71° (ENE) 22:14:39 434.975-435.025
AISAT 28 Apr 22:10:51 22:14:35 28° 67° (ENE) 22:18:24 437.250
GOMX 1 28 Apr 22:15:03 22:17:02 12° 275° (W) 22:18:51 467.674
DELFI C3 28 Apr 22:16:35 22:20:37 59° 259° (W) 22:24:39 145.870
CUBEBUG 2 28 Apr 22:25:49 22:30:05 46° 262° (W) 22:34:32 437.445
COMPASS 1 28 Apr 22:25:58 22:28:49 17° 270° (W) 22:31:32 437.405
ANTELSAT 28 Apr 22:29:02 22:31:19 14° 86° (E) 22:33:49 437.575/2403.000
DOVE 4 28 Apr 22:34:54 22:36:44 12° 276° (W) 22:38:22 437.250
HO-68 28 Apr 22:35:15 22:40:24 20° 273° (W) 22:45:16 435.675
HUMSAT D 28 Apr 22:38:08 22:42:23 82° 78° (ENE) 22:46:44 437.325/437.525
O/OREOS (USA 219) 28 Apr 22:42:53 22:47:26 63° 297° (WNW) 22:51:58 437.305
UKube-1 28 Apr 22:44:12 22:48:30 71° 257° (WSW) 22:52:51 .
FUNcube-1 28 Apr 22:44:45 22:48:59 44° 263° (W) 22:53:18 145.935
UWE-3 28 Apr 22:44:49 22:48:54 36° 264° (W) 22:53:07 435.000/436.395/437.385
50 SAT 28 Apr 22:47:36 22:51:35 65° 74° (ENE) 22:55:37 437.505
Cosmos 2491 28 Apr 22:48:20 22:56:57 69° 94° (E) 23:05:40 435.465 / 435.565
CINEMA 3 28 Apr 22:52:15 22:55:00 15° 273° (W) 22:57:38 145.822/145.860
RS-15 28 Apr 22:52:59 23:04:32 80° 52° (NE) 23:16:37 29.354- 29.394
YUBILEINY 28 Apr 22:55:23 23:03:53 57° 269° (W) 23:12:16 435.215
SPROUT 28 Apr 22:56:11 22:57:42 12° 60° (ENE) 22:59:24 437.525
ESTCUBE 1 28 Apr 23:01:21 23:05:41 49° 71° (ENE) 23:10:03 437.505/2401.250
Oscar 11 28 Apr 23:04:36 23:07:28 16° 271° (W) 23:10:11 145.826/435.025
DUCHIFAT 1 28 Apr 23:09:16 23:11:44 15° 89° (E) 23:14:23 145.980
POLYITAN 1 28 Apr 23:12:23 23:15:14 17° 90° (E) 23:18:12 437.675
ZACube-1 28 Apr 23:12:29 23:16:06 24° 268° (W) 23:19:43 437.345
TIGRISAT 28 Apr 23:16:02 23:20:25 38° 96° (E) 23:24:45 435.000
Cosmos 2504 28 Apr 23:16:32 23:22:54 26° 61° (ENE) 23:29:08 435.465 / 435.565
UNISAT 6 28 Apr 23:21:53 23:26:25 44° 98° (E) 23:30:51 437.425
CUBEBUG 1 28 Apr 23:22:16 23:26:33 70° 74° (ENE) 23:30:53 437.445
VELOX 1 28 Apr 23:27:22 23:31:39 51° 260° (W) 23:35:58 145.980
QB50P1 28 Apr 23:28:20 23:31:51 25° 93° (E) 23:35:26 145.935-145.965
AIST 1 28 Apr 23:38:28 23:40:46 15° 86° (E) 23:43:15
DX 1 28 Apr 23:44:03 23:47:00 17° 269° (W) 23:49:51 434.975-435.025
TISAT 1 28 Apr 23:45:28 23:49:02 28° 67° (ENE) 23:52:39 437.305
AISAT 28 Apr 23:47:10 23:51:07 32° 264° (W) 23:55:04 437.250
QB50P2 28 Apr 23:55:19 23:59:30 47° 99° (E) 00:03:40 145.880/145.840
ANTELSAT 29 Apr 00:04:00 00:08:44 73° 286° (WNW) 00:13:21 437.575/2403.000
NANOSAT C BR1 29 Apr 00:10:51 00:15:08 68° 102° (ESE) 00:19:25 145.865
POPSAT HIP 1 29 Apr 00:15:41 00:20:01 77° 102° (ESE) 00:24:20 437.405
HUMSAT D 29 Apr 00:18:03 00:18:51 10° 275° (W) 00:19:23 437.325/437.525
BUGSAT 1 29 Apr 00:21:14 00:25:22 61° 101° (E) 00:29:32 437.445
BEESAT 29 Apr 00:25:04 00:27:52 16° 60° (ENE) 00:30:50 436.000
50 SAT 29 Apr 00:25:18 00:26:54 12° 273° (W) 00:28:19 437.505
O/OREOS (USA 219) 29 Apr 00:26:47 00:27:55 11° 319° (NW) 00:28:50 437.305
SWISSCUBE 29 Apr 00:27:48 00:30:57 18° 61° (ENE) 00:34:14 437.505
SPROUT 29 Apr 00:28:55 00:33:12 84° 256° (WSW) 00:37:32 437.525
ESTCUBE 1 29 Apr 00:39:37 00:42:53 19° 270° (W) 00:46:01 437.505/2401.250
DUCHIFAT 1 29 Apr 00:43:45 00:47:58 56° 288° (WNW) 00:52:09 145.980
Cosmos 2491 29 Apr 00:47:05 00:54:40 31° 297° (WNW) 01:02:06 435.465 / 435.565
POLYITAN 1 29 Apr 00:47:17 00:51:29 49° 288° (WNW) 00:55:39 437.675
TIGRISAT 29 Apr 00:53:02 00:57:02 27° 294° (WNW) 01:00:53 435.000
YUBILEINY 29 Apr 00:57:01 00:58:54 11° 289° (WNW) 01:00:04 435.215
UNISAT 6 29 Apr 00:59:10 01:02:57 24° 295° (WNW) 01:06:35 437.425
CUBEBUG 1 29 Apr 01:01:35 01:03:30 12° 273° (W) 01:05:12 437.445
QB50P1 29 Apr 01:03:53 01:07:49 34° 291° (WNW) 01:11:42 145.935-145.965
RS-15 29 Apr 01:06:11 01:16:09 34° 253° (WSW) 01:26:06 29.354- 29.394
Cosmos 2504 29 Apr 01:09:19 01:17:19 72° 265° (W) 01:24:42 435.465 / 435.565
AIST 1 29 Apr 01:13:49 01:18:02 53° 282° (WNW) 01:22:13
TISAT 1 29 Apr 01:21:05 01:24:46 29° 265° (W) 01:28:27 437.305
GONETS M04 29 Apr 01:23:25 01:27:24 14° 48° (NE) 01:31:55
Oscar 19 29 Apr 01:31:16 01:34:51 19° 89° (E) 01:38:35 437.125/150
QB50P2 29 Apr 01:31:58 01:35:06 19° 296° (WNW) 01:38:07 145.880/145.840
ITUPSAT 1 29 Apr 01:32:02 01:36:44 60° 72° (ENE) 01:41:29 437.325
BEESAT 3 29 Apr 01:33:32 01:36:25 19° 113° (ESE) 01:39:26 437.485
BEESAT 2 29 Apr 01:39:44 01:42:35 19° 113° (ESE) 01:45:33 435.950
ANTELSAT 29 Apr 01:43:41 01:44:43 11° 303° (WNW) 01:45:32 437.575/2403.000
STARS 29 Apr 01:45:46 01:47:14 12° 59° (ENE) 01:48:55 437.465
DANDE 29 Apr 01:45:59 01:46:27 10° 49° (NE) 01:47:25 436.750
NANOSAT C BR1 29 Apr 01:48:07 01:50:31 14° 298° (WNW) 01:52:46 145.865
POPSAT HIP 1 29 Apr 01:53:17 01:55:22 13° 299° (WNW) 01:57:17 437.405
BUGSAT 1 29 Apr 01:58:00 02:00:26 15° 298° (WNW) 02:02:46 437.445
BEESAT 29 Apr 02:00:26 02:05:12 73° 257° (WSW) 02:10:01 436.000
SWISSCUBE 29 Apr 02:03:39 02:08:23 63° 259° (WSW) 02:13:09 437.505
ITAMSAT 1 29 Apr 02:14:41 02:17:23 15° 87° (E) 02:20:19 435.822/435.867
CUSAT 1 29 Apr 02:21:43 02:27:22 22° 59° (ENE) 02:33:41 437.405
KKS-1 29 Apr 02:33:14 02:37:30 48° 71° (ENE) 02:41:50 437.445
AIST 2 29 Apr 03:01:45 03:05:45 40° 119° (ESE) 03:09:48 435.215
Gurwin Techsat 1B 29 Apr 03:04:32 03:09:26 37° 96° (E) 03:14:20 435.225
Cosmos 2504 29 Apr 03:05:30 03:09:14 14° 286° (WNW) 03:12:25 435.465 / 435.565
Oscar 19 29 Apr 03:09:33 03:14:42 62° 288° (WNW) 03:19:49 437.125/150
BEESAT 3 29 Apr 03:10:07 03:14:07 51° 311° (NW) 03:18:10 437.485
ITUPSAT 1 29 Apr 03:11:53 03:15:06 17° 271° (W) 03:18:08 437.325
BEESAT 2 29 Apr 03:16:19 03:20:21 53° 311° (NW) 03:24:27 435.950
GONETS M04 29 Apr 03:18:05 03:26:49 58° 74° (ENE) 03:35:30
STARS 29 Apr 03:18:40 03:23:04 90° 179° (S) 03:27:32 437.465
DANDE 29 Apr 03:24:37 03:31:44 43° 70° (ENE) 03:39:49 436.750
MOZHAYETS 4 29 Apr 03:28:41 03:31:22 16° 61° (ENE) 03:34:12
Cosmos 2499 29 Apr 03:28:43 03:31:22 12° 48° (NE) 03:34:24 435.465 / 435.565
JAS-2 29 Apr 03:39:17 03:41:59 13° 81° (E) 03:44:53 435.910
ITAMSAT 1 29 Apr 03:52:24 03:57:36 79° 288° (WNW) 04:02:48 435.822/435.867
CUSAT 1 29 Apr 04:03:23 04:11:10 84° 79° (ENE) 04:19:35 437.405
KKS-1 29 Apr 04:11:16 04:14:28 19° 269° (W) 04:17:33 437.445
M-CUBED/EXP-1 PRIME 29 Apr 04:31:49 04:33:37 12° 52° (NE) 04:35:35 437.505
AIST 2 29 Apr 04:40:40 04:44:27 29° 318° (NW) 04:48:14 435.215
HORYU 2 29 Apr 04:43:55 04:48:25 66° 101° (ESE) 04:52:52 437.375
Gurwin Techsat 1B 29 Apr 04:44:37 04:49:23 34° 294° (WNW) 04:54:05 435.225
AO-7 29 Apr 04:50:26 04:58:27 49° 100° (E) 05:06:30 29.400- 29.500
BEESAT 3 29 Apr 04:51:33 04:53:07 12° 333° (NNW) 04:54:36 437.485
Oscar 19 29 Apr 04:52:11 04:53:08 10° 306° (NW) 04:53:50 437.125/150
BEESAT 2 29 Apr 04:57:42 04:59:26 12° 332° (NNW) 05:01:04 435.950
MOZHAYETS 4 29 Apr 05:03:28 05:08:06 70° 258° (WSW) 05:12:46
DANDE 29 Apr 05:07:47 05:15:10 51° 266° (W) 05:23:19 436.750
AUBIESAT-1 29 Apr 05:08:30 05:12:04 22° 58° (ENE) 05:15:42 437.475
GONETS M04 29 Apr 05:15:31 05:23:19 35° 275° (W) 05:30:54
CUBESAT XI-V 29 Apr 05:15:42 05:18:28 16° 62° (ENE) 05:21:22 437.345
STRAND 1 29 Apr 05:18:09 05:19:19 11° 55° (NE) 05:20:44 437.568
Cosmos 2499 29 Apr 05:19:12 05:26:52 58° 75° (ENE) 05:34:00 435.465 / 435.565
JAS-2 29 Apr 05:22:04 05:28:26 88° 103° (ESE) 05:34:02 435.910
ITAMSAT 1 29 Apr 05:33:56 05:36:22 13° 304° (NW) 05:38:34 435.822/435.867
PRISM 29 Apr 05:46:07 05:48:54 18° 64° (ENE) 05:51:48 437.425
CUSAT 1 29 Apr 05:47:13 05:53:20 24° 275° (W) 05:59:27 437.405
M-CUBED/EXP-1 PRIME 29 Apr 06:02:55 06:07:45 71° 68° (ENE) 06:12:31 437.505
HORYU 2 29 Apr 06:21:48 06:24:36 16° 299° (WNW) 06:27:14 437.375
AUBIESAT-1 29 Apr 06:41:47 06:46:31 57° 255° (WSW) 06:51:12 437.475
AO-7 29 Apr 06:43:27 06:51:14 45° 300° (WNW) 06:58:56 29.400- 29.500
PCSat 29 Apr 06:45:15 06:48:05 15° 105° (ESE) 06:51:12 145.827
CUBESAT XI-V 29 Apr 06:50:51 06:55:28 66° 260° (W) 07:00:04 437.345
STRAND 1 29 Apr 06:52:37 06:57:41 67° 72° (ENE) 07:02:46 437.568
DANDE 29 Apr 06:56:00 06:57:17 10° 282° (WNW) 06:57:56 436.750
JAS-2 29 Apr 07:08:29 07:12:37 18° 306° (NW) 07:16:17 435.910
CUTE-I 29 Apr 07:10:28 07:15:38 50° 99° (E) 07:20:49 437.470
O/OREOS (USA 219) 29 Apr 07:11:15 07:15:35 45° 59° (ENE) 07:19:54 437.305
Cosmos 2499 29 Apr 07:13:04 07:19:32 29° 277° (W) 07:25:30 435.465 / 435.565
PRISM 29 Apr 07:20:03 07:24:05 47° 260° (W) 07:28:06 437.425
Cubesat XI-IV 29 Apr 07:21:15 07:26:32 63° 101° (E) 07:31:50 437.490
M-CUBED/EXP-1 PRIME 29 Apr 07:39:59 07:43:04 16° 266° (W) 07:45:56 437.505
HO-68 29 Apr 08:12:01 08:14:59 13° 83° (E) 08:18:24 435.675
PCSat 29 Apr 08:25:26 08:30:51 87° 299° (WNW) 08:36:21 145.827
GOMX 1 29 Apr 08:33:07 08:36:54 20° 90° (E) 08:40:58 467.674
STRAND 1 29 Apr 08:34:05 08:37:27 17° 271° (W) 08:40:37 437.568
AO-7 29 Apr 08:38:36 08:42:03 13° 323° (NW) 08:45:10 29.400- 29.500
DOVE 4 29 Apr 08:50:36 08:54:19 20° 89° (E) 08:58:16 437.250
CUTE-I 29 Apr 08:51:07 08:55:28 26° 297° (WNW) 08:59:43 437.470
O/OREOS (USA 219) 29 Apr 08:51:21 08:54:44 21° 257° (WSW) 08:57:59 437.305
Cosmos 2491 29 Apr 08:55:36 09:03:43 39° 68° (ENE) 09:11:54 435.465 / 435.565
Cubesat XI-IV 29 Apr 09:02:15 09:06:14 21° 299° (WNW) 09:10:05 437.490
SEEDS 29 Apr 09:02:22 09:05:14 18° 90° (E) 09:08:12 437.485
BRITE-PL 29 Apr 09:05:02 09:10:09 55° 99° (E) 09:15:35 437.365/2234.400
CINEMA 3 29 Apr 09:06:29 09:09:05 14° 86° (E) 09:11:56 145.822/145.860
AAUSAT CUBESAT 2 29 Apr 09:10:08 09:12:32 15° 89° (E) 09:15:04 437.432
CANX-2 29 Apr 09:16:54 09:20:47 33° 96° (E) 09:24:39 2200.000
CUTE 1.7 + AOD 2 29 Apr 09:25:21 09:29:20 37° 96° (E) 09:33:17 437.475
ANTELSAT 29 Apr 09:30:23 09:33:25 18° 62° (ENE) 09:36:37 437.575/2403.000
AIST 2 29 Apr 09:43:40 09:45:45 13° 29° (NNE) 09:47:56 435.215
BEESAT 3 29 Apr 09:48:56 09:52:35 30° 43° (NE) 09:56:13 437.485
DELFI C3 29 Apr 09:54:40 09:57:05 16° 89° (E) 09:59:38 145.870
BEESAT 2 29 Apr 09:55:34 09:59:14 29° 42° (NE) 10:02:52 435.950
HO-68 29 Apr 09:56:58 10:04:11 72° 104° (ESE) 10:11:20 435.675
SO-50 29 Apr 10:00:05 10:02:17 14° 109° (ESE) 10:04:44 436.795
YUBILEINY 29 Apr 10:03:12 10:10:58 38° 86° (E) 10:18:53 435.215
DUCHIFAT 1 29 Apr 10:04:28 10:07:08 17° 63° (ENE) 10:09:55 145.980
COMPASS 1 29 Apr 10:05:11 10:09:23 67° 101° (E) 10:13:32 437.405
POLYITAN 1 29 Apr 10:08:11 10:11:09 19° 64° (ENE) 10:14:14 437.675
GOMX 1 29 Apr 10:10:16 10:15:24 61° 287° (WNW) 10:20:45 467.674
PCSat 29 Apr 10:11:05 10:15:07 20° 324° (NW) 10:19:05 145.827
CUBEBUG 2 29 Apr 10:14:20 10:18:38 33° 95° (E) 10:22:57 437.445
TIGRISAT 29 Apr 10:17:01 10:21:21 45° 70° (ENE) 10:25:50 435.000
HUMSAT D 29 Apr 10:21:54 10:23:26 12° 86° (E) 10:25:11 437.325/437.525
UNISAT 6 29 Apr 10:23:03 10:27:30 53° 72° (ENE) 10:32:06 437.425
QB50P1 29 Apr 10:23:42 10:27:11 26° 67° (ENE) 10:30:47 145.935-145.965
ISS 29 Apr 10:24:15 10:26:20 16° 136° (SE) 10:28:28 145.825
DOVE 4 29 Apr 10:27:22 10:32:28 61° 288° (WNW) 10:37:41 437.250
UKube-1 29 Apr 10:30:22 10:33:00 16° 90° (E) 10:35:47 .
FUNcube-1 29 Apr 10:30:42 10:34:46 30° 94° (E) 10:38:49 145.935
UWE-3 29 Apr 10:31:50 10:36:16 39° 97° (E) 10:40:39 435.000/436.395/437.385
SEEDS 29 Apr 10:37:15 10:41:20 46° 288° (WNW) 10:45:21 437.485
CINEMA 3 29 Apr 10:41:54 10:46:56 78° 284° (WNW) 10:51:58 145.822/145.860
BRITE-PL 29 Apr 10:44:17 10:48:24 24° 295° (WNW) 10:52:36 437.365/2234.400
AAUSAT CUBESAT 2 29 Apr 10:44:27 10:48:33 53° 288° (WNW) 10:52:35 437.432
Oscar 11 29 Apr 10:47:26 10:51:48 77° 102° (ESE) 10:56:07 145.826/435.025
QB50P2 29 Apr 10:50:36 10:54:41 49° 72° (ENE) 10:58:50 145.880/145.840
Cosmos 2491 29 Apr 10:52:24 11:00:56 53° 270° (W) 11:09:21 435.465 / 435.565
CANX-2 29 Apr 10:53:01 10:56:37 26° 293° (WNW) 11:00:06 2200.000
ZACube-1 29 Apr 10:57:31 11:02:04 57° 100° (E) 11:06:35 437.345
CUTE 1.7 + AOD 2 29 Apr 11:01:38 11:05:05 23° 294° (WNW) 11:08:25 437.475
ANTELSAT 29 Apr 11:05:12 11:09:46 61° 259° (W) 11:14:25 437.575/2403.000
NANOSAT C BR1 29 Apr 11:05:42 11:09:53 70° 74° (ENE) 11:14:07 145.865
POPSAT HIP 1 29 Apr 11:10:46 11:14:59 79° 75° (ENE) 11:19:16 437.405
CUBEBUG 1 29 Apr 11:11:06 11:12:05 11° 86° (E) 11:13:20 437.445
BUGSAT 1 29 Apr 11:13:45 11:17:41 59° 73° (ENE) 11:21:41 437.445
VELOX 1 29 Apr 11:15:39 11:19:17 24° 94° (E) 11:22:58 145.980
AIST 1 29 Apr 11:18:13 11:22:20 45° 76° (ENE) 11:26:28
AIST 2 29 Apr 11:21:02 11:25:16 60° 50° (NE) 11:29:25 435.215
BEESAT 3 29 Apr 11:26:52 11:30:39 35° 242° (WSW) 11:34:20 437.485
DX 1 29 Apr 11:27:57 11:32:19 66° 102° (ESE) 11:36:41 434.975-435.025
DELFI C3 29 Apr 11:28:38 11:32:33 48° 288° (WNW) 11:36:26 145.870
BEESAT 2 29 Apr 11:33:35 11:37:25 36° 241° (WSW) 11:41:08 435.950
AISAT 29 Apr 11:34:49 11:39:01 39° 97° (E) 11:43:14 437.250
SO-50 29 Apr 11:37:29 11:42:11 86° 307° (NW) 11:47:04 436.795
DUCHIFAT 1 29 Apr 11:38:28 11:42:36 53° 260° (W) 11:46:45 145.980
COMPASS 1 29 Apr 11:42:21 11:44:35 14° 298° (WNW) 11:46:40 437.405
POLYITAN 1 29 Apr 11:42:41 11:46:46 46° 261° (W) 11:50:54 437.675
HO-68 29 Apr 11:45:30 11:51:23 28° 303° (WNW) 11:57:06 435.675
CUBEBUG 2 29 Apr 11:51:02 11:55:17 32° 293° (WNW) 11:59:28 437.445
GOMX 1 29 Apr 11:51:50 11:52:42 10° 303° (WNW) 11:53:17 467.674
TIGRISAT 29 Apr 11:54:46 11:58:21 22° 269° (W) 12:01:55 435.000
HUMSAT D 29 Apr 11:55:27 11:59:48 74° 285° (WNW) 12:04:05 437.325/437.525
50 SAT 29 Apr 11:56:51 12:00:55 74° 102° (ESE) 12:04:55 437.505
Cosmos 2504 29 Apr 11:58:55 12:04:47 21° 79° (E) 12:10:58 435.465 / 435.565
YUBILEINY 29 Apr 11:58:56 12:07:34 54° 287° (WNW) 12:16:10 435.215
ISS 29 Apr 11:59:04 12:02:19 85° 332° (NNW) 12:05:36 145.825
QB50P1 29 Apr 11:59:10 12:02:59 32° 264° (W) 12:06:48 145.935-145.965
UNISAT 6 29 Apr 12:01:23 12:04:40 19° 271° (W) 12:07:53 437.425
UKube-1 29 Apr 12:05:16 12:09:32 54° 288° (WNW) 12:13:46 .
FUNcube-1 29 Apr 12:06:59 12:11:06 32° 292° (WNW) 12:15:06 145.935
UWE-3 29 Apr 12:08:41 12:12:37 26° 294° (WNW) 12:16:27 435.000/436.395/437.385
DOVE 4 29 Apr 12:08:49 12:09:22 10° 304° (NW) 12:09:37 437.250
SPROUT 29 Apr 12:14:27 12:16:49 15° 88° (E) 12:19:21 437.525
CINEMA 3 29 Apr 12:21:14 12:23:23 12° 302° (WNW) 12:25:20 145.822/145.860
Oscar 11 29 Apr 12:25:20 12:27:26 13° 299° (WNW) 12:29:21 145.826/435.025
ESTCUBE 1 29 Apr 12:28:02 12:32:33 77° 104° (ESE) 12:37:03 437.505/2401.250
QB50P2 29 Apr 12:28:05 12:30:56 17° 270° (W) 12:33:38 145.880/145.840
ZACube-1 29 Apr 12:34:48 12:38:02 19° 297° (WNW) 12:41:08 437.345
NANOSAT C BR1 29 Apr 12:44:33 12:46:18 12° 273° (W) 12:47:51 145.865
CUBEBUG 1 29 Apr 12:44:44 12:49:08 81° 284° (WNW) 12:53:31 437.445
Oscar 19 29 Apr 12:50:15 12:54:54 35° 67° (ENE) 12:59:37 437.125/150
POPSAT HIP 1 29 Apr 12:50:35 12:51:32 10° 274° (W) 12:52:14 437.405
BUGSAT 1 29 Apr 12:51:40 12:53:38 13° 272° (W) 12:55:26 437.445
VELOX 1 29 Apr 12:51:51 12:55:58 37° 291° (WNW) 13:00:02 145.980
Gurwin Techsat 1B 29 Apr 12:52:10 12:54:10 12° 55° (NE) 12:56:25 435.225
AIST 1 29 Apr 12:56:50 12:59:41 17° 273° (W) 13:02:23
AIST 2 29 Apr 13:00:39 13:03:26 17° 248° (WSW) 13:06:04 435.215
TISAT 1 29 Apr 13:02:35 13:06:30 35° 97° (E) 13:10:26 437.305
DX 1 29 Apr 13:05:32 13:08:07 15° 299° (WNW) 13:10:34 434.975-435.025
AISAT 29 Apr 13:11:48 13:15:26 24° 295° (WNW) 13:18:59 437.250
SO-50 29 Apr 13:19:57 13:23:29 20° 329° (NNW) 13:27:01 436.795
RS-15 29 Apr 13:20:54 13:30:18 37° 109° (ESE) 13:40:08 29.354- 29.394
ITUPSAT 1 29 Apr 13:31:59 13:33:58 13° 87° (E) 13:36:11 437.325
50 SAT 29 Apr 13:33:30 13:35:11 12° 299° (WNW) 13:36:43 437.505
ITAMSAT 1 29 Apr 13:34:32 13:38:56 30° 65° (ENE) 13:43:26 435.822/435.867
ISS 29 Apr 13:36:00 13:38:58 31° 352° (N) 13:41:57 145.825
Cosmos 2504 29 Apr 13:48:19 13:57:14 89° 93° (E) 14:05:56 435.465 / 435.565
SPROUT 29 Apr 13:49:04 13:53:21 59° 287° (WNW) 13:57:37 437.525
JAS-2 29 Apr 13:54:35 13:58:02 14° 51° (NE) 14:01:44 435.910
BEESAT 29 Apr 13:58:42 14:02:30 24° 92° (E) 14:06:22 436.000
SWISSCUBE 29 Apr 14:01:48 14:05:49 27° 94° (E) 14:09:54 437.505
AO-7 29 Apr 14:02:42 14:08:30 22° 48° (NE) 14:14:33 29.400- 29.500
YUBILEINY 29 Apr 14:03:12 14:07:05 13° 313° (NW) 14:10:26 435.215
ESTCUBE 1 29 Apr 14:06:31 14:08:53 14° 300° (WNW) 14:11:06 437.505/2401.250
HORYU 2 29 Apr 14:11:42 14:12:57 11° 58° (ENE) 14:14:25 437.375
